Tracking 30922 objects as of 1-Jul-2025
HD Live streaming from Space Station
objects crossing your sky now

COSMOS 1937

Track COSMOS 1937 now!
10-day predictions
COSMOS 1937 is classified as:


NORAD ID: 19038
Int'l Code: 1988-029A
Perigee: 761.4 km
Apogee: 796.3 km
Inclination: 74.0 °
Period: 100.3 minutes
Semi major axis: 7149 km
RCS: 2.2121 m2 (large)
Launch date: April 5, 1988
Source: Commonwealth of Independent States (former USSR) (CIS)
Launch site: PLESETSK MISSILE AND SPACE COMPLEX (PKMTR)
Your satellite tracking list
Your tracking list is empty




NASA's NSSDC Master Catalog

Two Line Element Set (TLE):
1 19038U 88029A   25181.93817544  .00000052  00000-0  26736-4 0  9991
2 19038  74.0460  29.1485 0024394 203.5887 262.8716 14.36005301949320
Source of the keplerian elements: AFSPC